Location: Windsor
(43.2292°N, 89.3015°W)
Time: 10:34:36
(UTC+00:00)

Tiros 1 - Pass Details

Date: 05 June 2022
Orbit: 629 x 663 km, 48.4° (Epoch: 04 July)

Event Time Altitude Azimuth Distance (km) Brightness Sun altitude
Rises 08:14:46 0° 295° (WNW) 2,921 10.4 -16.9°
Reaches altitude 10° 08:17:06 10° 293° (WNW) 2,014 9.6 -16.6°
Maximum altitude 08:21:42 70° 210° (SSW) 677 7.0 -16.1°
Drops below altitude 10° 08:26:20 10° 127° (SE) 2,023 9.7 -15.7°
Sets 08:28:40 0° 125° (SE) 2,936 10.6 -15.4°
